Bodensee (Kressbronn): 10,0°C  -  Teich der Wetterzentrale Bad Schussenried: 5,6°C |  Schneehöhe Kreuzthal-Steinberg (930 m ü. NN): 2 cm   
14.11.2019Höhe
ü. NN
ZeitTemperatur (°C)Nieder-
schlag
Luft-
feuchte
Luft-
druck
Wind
StationaktuellMinimumMaximumaktuellMaximum
Aldingen654 m00:010,10,1 (02:23)0,1 (13:03)0,0 l/m²91%1006,80,0 km/h (0 Bft) S-SO22,2 km/h (4 Bft) S-SO (13:14)
Allmannsweiler625 m00:000,20,2 (00:00)0,2 (00:00)0,0 l/m²91%1005,70,0 km/h (0 Bft) SW0,0 km/h (0 Bft) SW (00:00)
Allmendingen541 m00:00-1,0-1,0 (00:00)-1,0 (14:30)0,0 l/m²90%1006,11,6 km/h (1 Bft) O27,4 km/h (4 Bft) SW (15:30)
Amstetten-Reutti663 m00:00-0,8-0,8 (00:00)-0,8 (14:25)0,0 l/m²91%1005,86,4 km/h (2 Bft) O22,5 km/h (4 Bft) W-SW (13:55)
Amtzell-Grenis677 m00:00-0,1-0,1 (00:00)-0,1 (00:00)0,0 l/m²76%1007,64,8 km/h (1 Bft) SW4,8 km/h (1 Bft) SW (00:00)
Bad Krozingen233 m00:004,64,6 (07:25)4,6 (14:35)0,0 l/m²81%1006,23,3 km/h (1 Bft) SO29,7 km/h (5 Bft) SW (12:35)
Bad Saulgau595 m00:000,50,5 (07:15)0,5 (11:35)0,0 l/m²88%1005,06,4 km/h (2 Bft) NW22,5 km/h (4 Bft) NO (12:20)
Bad Saulgau-Lampertsweiler627 m00:000,40,4 (00:00)0,4 (00:00)0,0 l/m²84%1008,60,0 km/h (0 Bft) SO0,0 km/h (0 Bft) SO (00:00)
Bad Schussenried572 m00:000,81,0 (00:00)1,0 (00:00)0,0 l/m²85%1004,60,0 km/h (0 Bft) W-SW0,0 km/h (0 Bft) W-SW (00:00)
Bergatreute615 m00:001,61,6 (00:00)1,6 (00:00)0,0 l/m²91%1006,00,0 km/h (0 Bft) SO0,0 km/h (0 Bft) SO (00:00)
Biberach (Riss), Boehringer533 m00:100,50,2 (00:10)0,7 (00:00)0,0 l/m²91%1006,80,0 km/h (0 Bft) N8,3 km/h (2 Bft) W-SW (00:00)
Biberach (Riss), Realschule553 m00:000,80,9 (00:00)0,9 (00:00)0,0 l/m²88%1007,13,2 km/h (1 Bft) S-SO3,2 km/h (1 Bft) S-SO (00:00)
Burgrieden523 m00:000,10,1 (00:00)0,1 (00:00)0,0 l/m²85%1006,10,0 km/h (0 Bft) S0,0 km/h (0 Bft) S (00:00)
Ebersbach579 m00:000,70,7 (00:00)0,7 (00:00)0,0 l/m²89%1007,00,0 km/h (0 Bft) SO0,0 km/h (0 Bft) SO (00:00)
Ebersbach-Boos605 m00:000,80,9 (00:00)0,9 (00:00)0,0 l/m²88%1006,70,0 km/h (0 Bft) SO0,0 km/h (0 Bft) SW (00:00)
Ebersbach-Menzenweiler661 m00:002,02,0 (00:00)2,0 (00:00)0,0 l/m²84%1006,711,3 km/h (2 Bft) O-SO11,3 km/h (2 Bft) O-SO (00:00)
Erlenmoos645 m00:001,41,6 (00:00)1,6 (00:00)0,0 l/m²89%1006,49,7 km/h (2 Bft) S-SO9,7 km/h (2 Bft) S-SO (00:00)
Ertingen569 m00:000,40,4 (00:00)0,4 (00:00)0,0 l/m²89%1006,10,0 km/h (0 Bft) S-SO0,0 km/h (0 Bft) S-SO (00:00)
Günzburg443 m00:000,80,8 (00:00)0,8 (00:00)0,0 l/m²88%1003,90,0 km/h (0 Bft) SW0,0 km/h (0 Bft) SW (00:00)
Hochdorf-Appendorf537 m00:00-1,9-1,8 (00:00)-1,8 (00:00)0,0 l/m²78%1014,23,2 km/h (1 Bft) W3,2 km/h (1 Bft) W (00:00)
Höchsten802 m00:000,80,8 (00:00)0,8 (00:00)0,0 l/m²88%1004,26,4 km/h (2 Bft) S-SW6,4 km/h (2 Bft) S-SW (00:00)
Horgenzell618 m00:001,21,3 (00:00)1,3 (00:00)0,0 l/m²87%1004,86,4 km/h (2 Bft) O6,4 km/h (2 Bft) SO (00:00)
Hoßkirch632 m00:00-0,20,1 (00:00)0,1 (00:00)0,0 l/m²88%1005,29,7 km/h (2 Bft) O9,7 km/h (2 Bft) O-SO (00:00)
Isny, Am Dreifingerbach695 m00:00-1,1-1,0 (00:00)-1,0 (00:00)0,0 l/m²93%1005,94,8 km/h (1 Bft) O-SO4,8 km/h (1 Bft) O-SO (00:00)
Isny, Weidachweg706 m00:00-0,7-0,6 (00:00)-0,6 (00:00)0,0 l/m²88%1007,98,0 km/h (2 Bft) O-SO8,0 km/h (2 Bft) SO (00:00)
Kirchberg an der Iller584 m00:00-0,1-0,1 (23:45)-0,1 (13:45)0,0 l/m²87%997,80,0 km/h (0 Bft) O-NO17,9 km/h (3 Bft) O-SO (13:30)
Kißlegg-Staibshof709 m00:000,30,3 (00:00)0,3 (00:00)0,0 l/m²93%1006,50,0 km/h (0 Bft) S-SW0,0 km/h (0 Bft) SW (00:00)
Kressbronn398 m00:002,92,9 (00:00)2,9 (00:00)0,0 l/m²83%1005,19,7 km/h (2 Bft) O9,7 km/h (2 Bft) O (00:00)
Kreuzthal-Steinberg-Alpe930 m00:00-0,4-0,4 (00:00)-0,4 (00:00)0,0 l/m²100%1010,04,3 km/h (1 Bft) SO6,8 km/h (2 Bft) S (00:00)
Kreuzthal-Steinberggipfel1040 m00:00-1,4-1,6 (00:00)-1,3 (00:00)-100%1010,08,6 km/h (2 Bft) S12,2 km/h (3 Bft) SW (00:00)
Kristberg im Montafon (AT)1425 m00:00-3,7-3,7 (00:00)-3,7 (00:00)0,0 l/m²77%1007,61,6 km/h (1 Bft) NO1,6 km/h (1 Bft) NO (00:00)
Laupheim500 m00:00-0,4-0,3 (00:00)-0,3 (00:00)0,0 l/m²90%1005,61,6 km/h (1 Bft) S-SW1,6 km/h (1 Bft) S-SW (00:00)
Leutkirch-Heggelbach670 m00:00-1,2-1,2 (00:00)-1,2 (00:00)0,0 l/m²90%1005,60,0 km/h (0 Bft) SW0,0 km/h (0 Bft) S-SW (00:00)
Lindau-Insel420 m00:004,84,8 (06:30)4,8 (15:15)0,0 l/m²77%1005,40,0 km/h (0 Bft) S-SO19,3 km/h (3 Bft) S (22:25)
Lindau-Stadt412 m00:003,43,4 (07:35)3,4 (12:10)0,0 l/m²82%1005,73,2 km/h (1 Bft) SO16,1 km/h (3 Bft) W (10:10)
Maselheim543 m00:000,00,0 (07:25)0,0 (13:45)0,0 l/m²89%1006,43,2 km/h (1 Bft) S-SO27,4 km/h (4 Bft) W-SW (13:35)
Maselheim-Sulmingen548 m00:000,20,2 (07:35)0,2 (14:10)0,0 l/m²89%1007,64,8 km/h (1 Bft) SW30,6 km/h (5 Bft) SW (13:15)
Mietingen-Baltringen528 m00:000,60,8 (00:00)0,8 (00:00)0,0 l/m²85%1007,90,0 km/h (0 Bft) S-SW0,0 km/h (0 Bft) S-SW (00:00)
Mindelheim-Apfeltrach620 m00:01-1,2-1,2 (00:01)-1,1 (00:00)0,0 l/m²90%1008,06,4 km/h (2 Bft) S-SO6,4 km/h (2 Bft) S-SO (00:00)
Mittelbiberach577 m00:001,31,3 (06:55)1,3 (13:35)0,0 l/m²85%1007,84,8 km/h (1 Bft) S24,1 km/h (4 Bft) SW (13:15)
Neukirch570 m00:000,70,7 (06:50)0,7 (14:30)0,0 l/m²88%1006,24,8 km/h (1 Bft) N-NO29,0 km/h (5 Bft) SW (13:50)
Ochsenhausen, Unt. Wiesen575 m00:000,60,7 (00:00)0,7 (00:00)0,0 l/m²87%1007,96,4 km/h (2 Bft) S6,4 km/h (2 Bft) S-SO (00:00)
Ostrach619 m00:000,50,6 (00:00)0,6 (00:00)0,0 l/m²90%1004,73,2 km/h (1 Bft) S3,2 km/h (1 Bft) S (00:00)
Ravensburg, Goethestraße428 m00:101,11,0 (00:00)1,1 (00:05)0,0 l/m²91%1005,76,4 km/h (2 Bft) N-NW6,4 km/h (2 Bft) N-NW (00:05)
Ravensburg, Springerstraße441 m00:002,12,1 (00:00)2,1 (00:00)0,0 l/m²80%1006,00,0 km/h (0 Bft) O-NO0,0 km/h (0 Bft) O-NO (00:00)
Ravensburg-Wernsreute511 m00:00-0,8-0,8 (23:20)-0,8 (13:10)0,0 l/m²92%1008,74,8 km/h (1 Bft) N25,7 km/h (4 Bft) SW (12:45)
Reichenbach an der Fils343 m00:002,72,8 (00:00)2,8 (00:00)0,0 l/m²83%1007,30,0 km/h (0 Bft) O0,0 km/h (0 Bft) O (00:00)
Reinstetten559 m00:000,50,7 (00:00)0,7 (00:00)0,0 l/m²87%1006,84,8 km/h (1 Bft) S-SW4,8 km/h (1 Bft) S-SW (00:00)
Riedlingen530 m00:00-0,10,0 (00:00)0,0 (00:00)0,0 l/m²91%1006,31,6 km/h (1 Bft) S-SW1,6 km/h (1 Bft) S-SW (00:00)
Schemmerhofen520 m00:000,60,6 (00:00)0,6 (00:00)0,0 l/m²91%1006,03,2 km/h (1 Bft) SW3,2 km/h (1 Bft) SW (00:00)
Silbertal im Montafon (AT)884 m00:00-2,3-2,3 (00:00)-2,3 (00:00)0,0 l/m²93%1007,90,0 km/h (0 Bft) O0,0 km/h (0 Bft) O (00:00)
Tuttlingen, Möhringer-Vorstadt711 m00:00-1,8-1,8 (06:30)-1,8 (12:55)0,0 l/m²95%1006,30,0 km/h (0 Bft) S-SO17,7 km/h (3 Bft) W-SW (12:15)
Ummendorf547 m00:000,00,0 (00:00)0,0 (00:00)0,0 l/m²84%1007,46,4 km/h (2 Bft) O-SO6,4 km/h (2 Bft) O-SO (00:00)
Ummendorf-Fischbach558 m00:00-0,2-0,2 (00:00)-0,2 (00:00)0,0 l/m²84%1007,40,0 km/h (0 Bft) SO0,0 km/h (0 Bft) SO (00:00)
Waldburg707 m00:000,50,5 (00:00)0,5 (00:00)0,0 l/m²90%1005,80,0 km/h (0 Bft) N0,0 km/h (0 Bft) N (00:00)
Wangen, Hans-Schnitzer-Weg569 m00:000,70,7 (00:00)0,7 (00:00)0,0 l/m²72%1005,10,0 km/h (0 Bft) S0,0 km/h (0 Bft) S (00:00)
Weingarten500 m00:001,91,9 (00:00)1,9 (00:00)0,0 l/m²88%1005,93,2 km/h (1 Bft) SO3,2 km/h (1 Bft) SO (00:00)

Werbung
niederschlagsdatenbank | info | login - erfassung

Sollten Sie Interesse haben, an der Niederschlagsdatenbank teilzunehmen, finden Sie > hier < weitere Informationen.

Niederschlagsdaten der Station Bad Waldsee-Haisterkirch - Zur Spitzenkapelle 1

Josef Zell

Niederschlagsstation aufgenommen ins Stationsnetz der Wetterwarte Süd am 01.03.2009
Monat: .
Anmerkung:0,0 = nicht messbarer Niederschlag
 -  = kein Niederschlag

Stationsdaten

Höhe

640 m

Lage

Auf Google Maps ansehen

Beschreibung

Zwei für die Region ungewöhnlich massive Gewitterregen mit Überschwemmungen erheblichen Ausmaßes binnen weniger Jahre um die Jahrtausendwende lieferten die Idee zum Aufstellen einer Wetterstation. Die Station liegt nur unweit vom Ortskern (Kirche, Rathaus / Klostergebäude). Auf Grund einer Weststaulage am Fuße des Haidgauer Berges (754 m Grabener Höhe / Aussichtspunkt Alpen bis Bussen) registriere ich an meiner Hobbystation in der Regel mehr Niederschlag als die offizielle Wetterstation im etwa 15 km westlicher liegenden Bad Schussenried. Die Windrichtung wird oft durch den Höhenzug lokal verändert. (Ostwinde hier oft aus Nord) Die Daten werden im 12-Minuten Turnus erfasst. Die Mindestmenge zur Registrierung beträgt 0,3l/qm. Es handelt sich um einen selbstentleerenden Wippenmesser. Der Regenmesser ist Solarbetrieben und ohne Heizung. Auf Grund dessen sind die Niederschlagsmengen bei Schneefall in der Regel nahezu NULL. Bei Tauwetter jedoch werden die fehlenden Mengen ausgeglichen. Die Werte sind also im Winter mit diesem Hintergrundwissen zu interpretieren!!!

Der bereits in einer Urkunde des Klosters St. Gallen aus dem Jahre 805 erstmals erwähnte Ort ist das Hauptort des etwa 1400 Einwohner zählenden Haistergaus. Etwa 4 km südlich von Haisterkirch und etwa 60 m höher gelegen ist bei der "Schanze" der Übergang in das "Wurzacher Becken". Im Norden läuft das Tal sanft zum Rißtal hin aus. Gut 1 km westlich (Richtung Bad Waldsee) wird das Tal durch eine Eiszeitmoräne begrenzt. Diese ist zugleich die Europäische Wasserscheide Rhein / Donau. Das Wasser der zahlreichen Quellen des im Osten angrenzenden Haidgauer Höhenzuges (Entfernung ca. 1.5 km, Höhe gut 100 m über dem Ort) fließt in den Haisterbach, von da in die Umlach. Diese in die Riß und schließlich in die Donau. Landwirtschaftliche Nutzfläche sowie mehrere Ortschaften und Weiler prägen das Tal. Einen Besuch wert sind insbesonders die Pfarrkirche, das Klostergebäude (beinhaltet unter anderem eine der schönsten Grundschulen des Landes sowie das Rathaus) und die Wallfahrtskapelle St. Sebastian. Auch das nur 2 km entfernte Naherholungsgebiet "Tannenbühl" mit Kletterpark, Spielplatz und zahlreichen Wildgehegen sowie Lehrpfaden ist ein das gesamte Jahr über beliebtes Ausflugsziel.
< Januar 2019März 2019 >

Februar 2019

TagNiederschlagBemerkung
01.1,0
23:00:-2/+4,5°C, stark bewölkt, zeitweise Niesel
Regen Nieselregen
Schneehöhe: 15 cm
02.-
0/+6°C, starkes Tauwetter, vormittags Hochnebel, ab der Mittagszeit wolkenlos, zum Abend bedeckt
Schneeregen
Schneehöhe: 15 cm
03.13,5
-1,5/+2°C, Schneeregen rasch in Schnee übergehend und anhaltend, erhebliche Straßenglätte
Schneeregen Schnee
Schneehöhe: 15 cm
04.-
-11,5/+2°C, nach kräftigem Nachtfrost einzelne Nebelbänke, überwiegend sonnig und zur Nacht erneut zweistelliger Frost
Bodennebel
Schneehöhe: 23 cm
05.-
-11/+1°C, nach nächtlicher Frostabschwächung nahezu ganztags Hochnebel, zur Nacht klar und lausig kalt
Bodennebel
Schneehöhe: 22 cm
06.-
-13,5/-1°C Eistag, sonnig - knapp über der Nebelgrenze, zeitweise auch im Nebel.
Bodennebel
Schneehöhe: 21 cm
07.6,4
-6,5/+2°C, um die Mittagszeit einsetzender Niederschlag
Regen Schneeregen
Schneehöhe: 21 cm
08.-
-2/+6°C, von der Früh weg sonnig, zum Abend dichte Wolken
Schneehöhe: 16 cm
09.-
-0,5/+8,5°C, bei auffrischendem Wind vormittags sonnig, nachmittags bedeckt, einige Tropfen
Regen
Schneehöhe: 14 cm
10.4,5
+1/+9,5°C, oft bewölkt, zwischendurch freundlich, mild, zur Nacht stürmisch mit kräftigen Schauern, Neuschnee <1cm
Regen Schneeregen Schnee Graupel
Schneehöhe: 10 cm
11.0,4
+0,5/+3,5°C, bewölkt, kurze Schnee- / Graupelschauer
Schnee Graupel
Schneehöhe: 4 cm
12.-
-1/+3,5°C, hochnebelartige Bewölkung
Schneehöhe: 4 vereinzelt Lücken
13.-
-6/+6°C, von der Früh an sonnig, zum Abend dünne Cirren
Schneehöhe: 3 vereinzelte Lücken
14.-
-4/+8°C, von der Früh weg sonnig, nachmittags Schleiergewölk
Schneehöhe: 3 durchbrochen
15.-
-4/+8°C, wolkenlos und nachmittags mild
Schneehöhe: 2 durchbrochen
16.-
-2/+11°C, wolkenlos, mild
Schneehöhe: 2 durchbrochen
17.-
-1,5/+13°C, maximale Sonneneinstrahlung bei Frühlingstemperatur
Schneehöhe: an der Schneegrenze
18.-
-2,5/+12°C, wolkenlos
Schneehöhe: Reste
19.-
0/+10°C, mehrere durchziehende Wolkenfelder, zuvor + dazwischen sonnig
Schneehöhe: Reste
20.-
+2/+13°C, bewölkt mit sonnigen Phasen
Schneehöhe: Reste
21.-
-0,5/+12°C, sonnig, zum Abend Schichtbewölkung
Schneehöhe: Reste
22.-
+3/+8°C, überwiegend bewölkt, zeitweise freundlich
Schneehöhe: einzelne Reste
23.-
-2/+6°C, überwiegend sonnig
Schneehöhe: einzelne Reste
24.-
-2/+10°C, überwiegend sonnig
25.-
-4,5/+13°C, vormittags sonnig, nachmittag einige Schleierwolken
26.-
-2/+14°C, mild, Sonnenschein pur
27.-
+0,5/+17°C, viel Sonnenschein bei Temperaturen als wäre April
28.2,2
+1/+16,5°C, nahezu wolkenlos, lebhafter Wind, Ende 2. Nachthälfte einsetzender Regen
Regen
Gesamt:28,0 
Die Spalten "Tag" und "Niederschlag" lassen sich durch Klicken auf den Spaltenkopf sortieren.
Die Angaben sind in l/m².

< Januar 2019März 2019 >


Monats- und Jahresniederschlag


Wetterbeobachtungen Legende:

  • Regen
  • Nieselregen
  • Schneeregen
  • Schnee
  • Graupel
  • Eiskörner
  • Hagel
  • Bodennebel
  • Gewitter
  • Nebelnässe
  • Schneegriesel

Grafische Darstellung der Niederschläge der Station Bad Waldsee-Haisterkirch Februar 2019

 
wetterstationen
wetterstationen
- derzeit 78 Stationen
niederschlagsdatenbank
wetterstationen
- kartographische Darstellung
niederschlagsdatenbank
niederschlagsstationen
- derzeit 111 Stationen
niederschlagsdatenbank
niederschlagsstationen
- kartographische Darstellung
 
 
Mi. 7.30 Uhr - Do. 7.30 Uhr (MEZ)
1.Bad Waldsee-Haisterkirch
Zur Spitzenkapelle 1
0,0 l/m²
 
  treffpunkt & service
--- Anzeigen --------------------------------
zugriffe:
insgesamt: 44.983.505
aktueller monat: 162.998
heute: 9
momentan online: 5
 
 
monatshöchstwert: 653.625
vorheriger monat: 400.654
gestern: 13.337
tageshöchstwert: 51.297
 
wetterwarte süd
 
konradstraße 3
info@wetterwarte-sued.com
roland roth
 
88427 bad schussenried